Year,Month,Day,Hour,Minute,Value (Times are PST for temperature in C)
2017,02,28,00,00,-2.40
2017,02,28,00,01,-2.40
2017,02,28,00,02,-2.40
2017,02,28,00,03,-2.40
2017,02,28,00,04,-2.50
2017,02,28,00,05,-2.50
2017,02,28,00,06,-2.50
2017,02,28,00,07,-2.50
2017,02,28,00,08,-2.50
2017,02,28,00,09,-2.50
2017,02,28,00,10,-2.50
2017,02,28,00,11,-2.50
2017,02,28,00,12,-2.50
2017,02,28,00,13,-2.50
2017,02,28,00,14,-2.60
2017,02,28,00,15,-2.60
2017,02,28,00,16,-2.50
2017,02,28,00,17,-2.50
2017,02,28,00,18,-2.60
2017,02,28,00,19,-2.60
2017,02,28,00,20,-2.60
2017,02,28,00,21,-2.60
2017,02,28,00,22,-2.60
2017,02,28,00,23,-2.70
2017,02,28,00,24,-2.70
2017,02,28,00,25,-2.70
2017,02,28,00,26,-2.70
2017,02,28,00,27,-2.70
2017,02,28,00,28,-2.70
2017,02,28,00,29,-2.70
2017,02,28,00,30,-2.70
2017,02,28,00,31,-2.70
2017,02,28,00,32,-2.70
2017,02,28,00,33,-2.70
2017,02,28,00,34,-2.70
2017,02,28,00,35,-2.70
2017,02,28,00,36,-2.70
2017,02,28,00,37,-2.70
2017,02,28,00,38,-2.70
2017,02,28,00,39,-2.70
2017,02,28,00,40,-2.70
2017,02,28,00,41,-2.70
2017,02,28,00,42,-2.70
2017,02,28,00,43,-2.70
2017,02,28,00,44,-2.70
2017,02,28,00,45,-2.80
2017,02,28,00,46,-2.80
2017,02,28,00,47,-2.80
2017,02,28,00,48,-2.80
2017,02,28,00,49,-2.80
2017,02,28,00,50,-2.80
2017,02,28,00,51,-2.80
2017,02,28,00,52,-2.80
2017,02,28,00,53,-2.80
2017,02,28,00,54,-2.90
2017,02,28,00,55,-2.90
2017,02,28,00,56,-2.90
2017,02,28,00,57,-2.90
2017,02,28,00,58,-2.90
2017,02,28,00,59,-2.90
2017,02,28,01,00,-2.90
2017,02,28,01,01,-2.90
2017,02,28,01,02,-2.90
2017,02,28,01,03,-2.90
2017,02,28,01,04,-2.90
2017,02,28,01,05,-2.90
2017,02,28,01,06,-2.90
2017,02,28,01,07,-2.90
2017,02,28,01,08,-2.90
2017,02,28,01,09,-2.90
2017,02,28,01,10,-2.90
2017,02,28,01,11,-2.90
2017,02,28,01,12,-2.90
2017,02,28,01,13,-2.90
2017,02,28,01,14,-3.00
2017,02,28,01,15,-3.00
2017,02,28,01,16,-3.00
2017,02,28,01,17,-3.00
2017,02,28,01,18,-3.00
2017,02,28,01,19,-3.00
2017,02,28,01,20,-3.00
2017,02,28,01,21,-3.00
2017,02,28,01,22,-3.00
2017,02,28,01,23,-3.00
2017,02,28,01,24,-3.00
2017,02,28,01,25,-3.00
2017,02,28,01,26,-3.10
2017,02,28,01,27,-3.10
2017,02,28,01,28,-3.10
2017,02,28,01,29,-3.10
2017,02,28,01,30,-3.10
2017,02,28,01,31,-3.10
2017,02,28,01,32,-3.10
2017,02,28,01,33,-3.10
2017,02,28,01,34,-3.10
2017,02,28,01,35,-3.10
2017,02,28,01,36,-3.20
2017,02,28,01,37,-3.20
2017,02,28,01,38,-3.20
2017,02,28,01,39,-3.20
2017,02,28,01,40,-3.20
2017,02,28,01,41,-3.20
2017,02,28,01,42,-3.20
2017,02,28,01,43,-3.20
2017,02,28,01,44,-3.20
2017,02,28,01,45,-3.20
2017,02,28,01,46,-3.20
2017,02,28,01,47,-3.20
2017,02,28,01,48,-3.20
2017,02,28,01,49,-3.20
2017,02,28,01,50,-3.20
2017,02,28,01,51,-3.20
2017,02,28,01,52,-3.20
2017,02,28,01,53,-3.20
2017,02,28,01,54,-3.20
2017,02,28,01,55,-3.20
2017,02,28,01,56,-3.20
2017,02,28,01,57,-3.20
2017,02,28,01,58,-3.30
2017,02,28,01,59,-3.30
2017,02,28,02,00,-3.30
2017,02,28,02,01,-3.30
2017,02,28,02,02,-3.30
2017,02,28,02,03,-3.40
2017,02,28,02,04,-3.40
2017,02,28,02,05,-3.40
2017,02,28,02,06,-3.40
2017,02,28,02,07,-3.40
2017,02,28,02,08,-3.40
2017,02,28,02,09,-3.40
2017,02,28,02,10,-3.30
2017,02,28,02,11,-3.30
2017,02,28,02,12,-3.30
2017,02,28,02,13,-3.30
2017,02,28,02,14,-3.30
2017,02,28,02,15,-3.30
2017,02,28,02,16,-3.30
2017,02,28,02,17,-3.30
2017,02,28,02,18,-3.40
2017,02,28,02,19,-3.40
2017,02,28,02,20,-3.40
2017,02,28,02,21,-3.40
2017,02,28,02,22,-3.40
2017,02,28,02,23,-3.40
2017,02,28,02,24,-3.40
2017,02,28,02,25,-3.40
2017,02,28,02,26,-3.40
2017,02,28,02,27,-3.40
2017,02,28,02,28,-3.40
2017,02,28,02,29,-3.40
2017,02,28,02,30,-3.40
2017,02,28,02,31,-3.40
2017,02,28,02,32,-3.40
2017,02,28,02,33,-3.40
2017,02,28,02,34,-3.50
2017,02,28,02,35,-3.50
2017,02,28,02,36,-3.50
2017,02,28,02,37,-3.50
2017,02,28,02,38,-3.50
2017,02,28,02,39,-3.50
2017,02,28,02,40,-3.50
2017,02,28,02,41,-3.50
2017,02,28,02,42,-3.60
2017,02,28,02,43,-3.60
2017,02,28,02,44,-3.60
2017,02,28,02,45,-3.60
2017,02,28,02,46,-3.60
2017,02,28,02,47,-3.60
2017,02,28,02,48,-3.60
2017,02,28,02,49,-3.60
2017,02,28,02,50,-3.70
2017,02,28,02,51,-3.70
2017,02,28,02,52,-3.70
2017,02,28,02,53,-3.70
2017,02,28,02,54,-3.70
2017,02,28,02,55,-3.70
2017,02,28,02,56,-3.70
2017,02,28,02,57,-3.70
2017,02,28,02,58,-3.70
2017,02,28,02,59,-3.70
2017,02,28,03,00,-3.70
2017,02,28,03,01,-3.70
2017,02,28,03,02,-3.70
2017,02,28,03,03,-3.80
2017,02,28,03,04,-3.80
2017,02,28,03,05,-3.80
2017,02,28,03,06,-3.80
2017,02,28,03,07,-3.80
2017,02,28,03,08,-3.80
2017,02,28,03,09,-3.80
2017,02,28,03,10,-3.90
2017,02,28,03,11,-3.90
2017,02,28,03,12,-3.90
2017,02,28,03,13,-3.90
2017,02,28,03,14,-3.90
2017,02,28,03,15,-3.90
2017,02,28,03,16,-3.90
2017,02,28,03,17,-4.00
2017,02,28,03,18,-4.00
2017,02,28,03,19,-4.00
2017,02,28,03,20,-4.00
2017,02,28,03,21,-4.00
2017,02,28,03,22,-4.00
2017,02,28,03,23,-4.00
2017,02,28,03,24,-4.10
2017,02,28,03,25,-4.10
2017,02,28,03,26,-4.10
2017,02,28,03,27,-4.10
2017,02,28,03,28,-4.10
2017,02,28,03,29,-4.10
2017,02,28,03,30,-4.10
2017,02,28,03,31,-4.10
2017,02,28,03,32,-4.00
2017,02,28,03,33,-4.00
2017,02,28,03,34,-4.00
2017,02,28,03,35,-4.00
2017,02,28,03,36,-4.00
2017,02,28,03,37,-4.00
2017,02,28,03,38,-3.90
2017,02,28,03,39,-3.90
2017,02,28,03,40,-3.90
2017,02,28,03,41,-3.90
2017,02,28,03,42,-3.90
2017,02,28,03,43,-3.90
2017,02,28,03,44,-3.90
2017,02,28,03,45,-3.90
2017,02,28,03,46,-3.90
2017,02,28,03,47,-3.90
2017,02,28,03,48,-3.90
2017,02,28,03,49,-3.90
2017,02,28,03,50,-3.90
2017,02,28,03,51,-3.90
2017,02,28,03,52,-3.90
2017,02,28,03,53,-3.90
2017,02,28,03,54,-3.90
2017,02,28,03,55,-3.90
2017,02,28,03,56,-4.00
2017,02,28,03,57,-4.00
2017,02,28,03,58,-4.00
2017,02,28,03,59,-4.00
2017,02,28,04,00,-4.10
2017,02,28,04,01,-4.10
2017,02,28,04,02,-4.10
2017,02,28,04,03,-4.10
2017,02,28,04,04,-4.10
2017,02,28,04,05,-4.10
2017,02,28,04,06,-4.10
2017,02,28,04,07,-4.10
2017,02,28,04,08,-4.10
2017,02,28,04,09,-4.20
2017,02,28,04,10,-4.20
2017,02,28,04,11,-4.20
2017,02,28,04,12,-4.20
2017,02,28,04,13,-4.20
2017,02,28,04,14,-4.20
2017,02,28,04,15,-4.20
2017,02,28,04,16,-4.20
2017,02,28,04,17,-4.20
2017,02,28,04,18,-4.20
2017,02,28,04,19,-4.20
2017,02,28,04,20,-4.20
2017,02,28,04,21,-4.20
2017,02,28,04,22,-4.20
2017,02,28,04,23,-4.30
2017,02,28,04,24,-4.30
2017,02,28,04,25,-4.30
2017,02,28,04,26,-4.30
2017,02,28,04,27,-4.30
2017,02,28,04,28,-4.30
2017,02,28,04,29,-4.30
2017,02,28,04,30,-4.30
2017,02,28,04,31,-4.30
2017,02,28,04,32,-4.20
2017,02,28,04,33,-4.20
2017,02,28,04,34,-4.20
2017,02,28,04,35,-4.20
2017,02,28,04,36,-4.20
2017,02,28,04,37,-4.20
2017,02,28,04,38,-4.20
2017,02,28,04,39,-4.10
2017,02,28,04,40,-4.10
2017,02,28,04,41,-4.10
2017,02,28,04,42,-4.10
2017,02,28,04,43,-4.10
2017,02,28,04,44,-4.00
2017,02,28,04,45,-4.00
2017,02,28,04,46,-4.00
2017,02,28,04,47,-3.90
2017,02,28,04,48,-3.90
2017,02,28,04,49,-3.90
2017,02,28,04,50,-3.90
2017,02,28,04,51,-3.90
2017,02,28,04,52,-3.90
2017,02,28,04,53,-3.90
2017,02,28,04,54,-3.90
2017,02,28,04,55,-3.90
2017,02,28,04,56,-3.80
2017,02,28,04,57,-3.80
2017,02,28,04,58,-3.80
2017,02,28,04,59,-3.80
2017,02,28,05,00,-3.80
2017,02,28,05,01,-3.80
2017,02,28,05,02,-3.80
2017,02,28,05,03,-3.80
2017,02,28,05,04,-3.80
2017,02,28,05,05,-3.80
2017,02,28,05,06,-3.80
2017,02,28,05,07,-3.80
2017,02,28,05,08,-3.80
2017,02,28,05,09,-3.80
2017,02,28,05,10,-3.80
2017,02,28,05,11,-3.80
2017,02,28,05,12,-3.80
2017,02,28,05,13,-3.70
2017,02,28,05,14,-3.70
2017,02,28,05,15,-3.80
2017,02,28,05,16,-3.70
2017,02,28,05,17,-3.80
2017,02,28,05,18,-3.80
2017,02,28,05,19,-3.70
2017,02,28,05,20,-3.70
2017,02,28,05,21,-3.70
2017,02,28,05,22,-3.70
2017,02,28,05,23,-3.70
2017,02,28,05,24,-3.70
2017,02,28,05,25,-3.70
2017,02,28,05,26,-3.70
2017,02,28,05,27,-3.70
2017,02,28,05,28,-3.70
2017,02,28,05,29,-3.70
2017,02,28,05,30,-3.70
2017,02,28,05,31,-3.70
2017,02,28,05,32,-3.70
2017,02,28,05,33,-3.70
2017,02,28,05,34,-3.70
2017,02,28,05,35,-3.70
2017,02,28,05,36,-3.60
2017,02,28,05,37,-3.60
2017,02,28,05,38,-3.60
2017,02,28,05,39,-3.60
2017,02,28,05,40,-3.60
2017,02,28,05,41,-3.60
2017,02,28,05,42,-3.60
2017,02,28,05,43,-3.70
2017,02,28,05,44,-3.70
2017,02,28,05,45,-3.70
2017,02,28,05,46,-3.70
2017,02,28,05,47,-3.70
2017,02,28,05,48,-3.70
2017,02,28,05,49,-3.70
2017,02,28,05,50,-3.70
2017,02,28,05,51,-3.70
2017,02,28,05,52,-3.70
2017,02,28,05,53,-3.70
2017,02,28,05,54,-3.70
2017,02,28,05,55,-3.70
2017,02,28,05,56,-3.70
2017,02,28,05,57,-3.70
2017,02,28,05,58,-3.70
2017,02,28,05,59,-3.60
2017,02,28,06,00,-3.60
2017,02,28,06,01,-3.60
2017,02,28,06,02,-3.60
2017,02,28,06,03,-3.60
2017,02,28,06,04,-3.60
2017,02,28,06,05,-3.60
2017,02,28,06,06,-3.60
2017,02,28,06,07,-3.60
2017,02,28,06,08,-3.60
2017,02,28,06,09,-3.60
2017,02,28,06,10,-3.60
2017,02,28,06,11,-3.50
2017,02,28,06,12,-3.50
2017,02,28,06,13,-3.50
2017,02,28,06,14,-3.50
2017,02,28,06,15,-3.50
2017,02,28,06,16,-3.40
2017,02,28,06,17,-3.40
2017,02,28,06,18,-3.40
2017,02,28,06,19,-3.40
2017,02,28,06,20,-3.40
2017,02,28,06,21,-3.40
2017,02,28,06,22,-3.40
2017,02,28,06,23,-3.40
2017,02,28,06,24,-3.40
2017,02,28,06,25,-3.40
2017,02,28,06,26,-3.30
2017,02,28,06,27,-3.30
2017,02,28,06,28,-3.30
2017,02,28,06,29,-3.40
2017,02,28,06,30,-3.30
2017,02,28,06,31,-3.30
2017,02,28,06,32,-3.40
2017,02,28,06,33,-3.30
2017,02,28,06,34,-3.30
2017,02,28,06,35,-3.30
2017,02,28,06,36,-3.30
2017,02,28,06,37,-3.30
2017,02,28,06,38,-3.40
2017,02,28,06,39,-3.40
2017,02,28,06,40,-3.40
2017,02,28,06,41,-3.40
2017,02,28,06,42,-3.40
2017,02,28,06,43,-3.40
2017,02,28,06,44,-3.40
2017,02,28,06,45,-3.40
2017,02,28,06,46,-3.40
2017,02,28,06,47,-3.40
2017,02,28,06,48,-3.40
2017,02,28,06,49,-3.40
2017,02,28,06,50,-3.30
2017,02,28,06,51,-3.30
2017,02,28,06,52,-3.30
2017,02,28,06,53,-3.30
2017,02,28,06,54,-3.30
2017,02,28,06,55,-3.30
2017,02,28,06,56,-3.30
2017,02,28,06,57,-3.30
2017,02,28,06,58,-3.30
2017,02,28,06,59,-3.30
2017,02,28,07,00,-3.30
2017,02,28,07,01,-3.30
2017,02,28,07,02,-3.20
2017,02,28,07,03,-3.30
2017,02,28,07,04,-3.20
2017,02,28,07,05,-3.20
2017,02,28,07,06,-3.20
2017,02,28,07,07,-3.20
2017,02,28,07,08,-3.20
2017,02,28,07,09,-3.20
2017,02,28,07,10,-3.20
2017,02,28,07,11,-3.20
2017,02,28,07,12,-3.20
2017,02,28,07,13,-3.20
2017,02,28,07,14,-3.20
2017,02,28,07,15,-3.20
2017,02,28,07,16,-3.20
2017,02,28,07,17,-3.20
2017,02,28,07,18,-3.20
2017,02,28,07,19,-3.20
2017,02,28,07,20,-3.20
2017,02,28,07,21,-3.20
2017,02,28,07,22,-3.20
2017,02,28,07,23,-3.30
2017,02,28,07,24,-3.30
2017,02,28,07,25,-3.30
2017,02,28,07,26,-3.20
2017,02,28,07,27,-3.30
2017,02,28,07,28,-3.30
2017,02,28,07,29,-3.30
2017,02,28,07,30,-3.30
2017,02,28,07,31,-3.30
2017,02,28,07,32,-3.30
2017,02,28,07,33,-3.30
2017,02,28,07,34,-3.30
2017,02,28,07,35,-3.30
2017,02,28,07,36,-3.30
2017,02,28,07,37,-3.30
2017,02,28,07,38,-3.30
2017,02,28,07,39,-3.30
2017,02,28,07,40,-3.30
2017,02,28,07,41,-3.30
2017,02,28,07,42,-3.30
2017,02,28,07,43,-3.30
2017,02,28,07,44,-3.30
2017,02,28,07,45,-3.20
2017,02,28,07,46,-3.20
2017,02,28,07,47,-3.20
2017,02,28,07,48,-3.20
2017,02,28,07,49,-3.20
2017,02,28,07,50,-3.20
2017,02,28,07,51,-3.20
2017,02,28,07,52,-3.20
2017,02,28,07,53,-3.20
2017,02,28,07,54,-3.20
2017,02,28,07,55,-3.20
2017,02,28,07,56,-3.20
2017,02,28,07,57,-3.20
2017,02,28,07,58,-3.20
2017,02,28,07,59,-3.10
2017,02,28,08,00,-3.10
2017,02,28,08,01,-3.10
2017,02,28,08,02,-3.10
2017,02,28,08,03,-3.10
2017,02,28,08,04,-3.10
2017,02,28,08,05,-3.00
2017,02,28,08,06,-3.00
2017,02,28,08,07,-3.00
2017,02,28,08,08,-3.00
2017,02,28,08,09,-3.00
2017,02,28,08,10,-3.00
2017,02,28,08,11,-2.90
2017,02,28,08,12,-2.90
2017,02,28,08,13,-2.90
2017,02,28,08,14,-2.90
2017,02,28,08,15,-2.90
2017,02,28,08,16,-2.90
2017,02,28,08,17,-2.90
2017,02,28,08,18,-2.90
2017,02,28,08,19,-2.90
2017,02,28,08,20,-2.90
2017,02,28,08,21,-2.90
2017,02,28,08,22,-2.90
2017,02,28,08,23,-2.90
2017,02,28,08,24,-2.90
2017,02,28,08,25,-2.80
2017,02,28,08,26,-2.80
2017,02,28,08,27,-2.80
2017,02,28,08,28,-2.80
2017,02,28,08,29,-2.80
2017,02,28,08,30,-2.80
2017,02,28,08,31,-2.80
2017,02,28,08,32,-2.80
2017,02,28,08,33,-2.80
2017,02,28,08,34,-2.80
2017,02,28,08,35,-2.80
2017,02,28,08,36,-2.80
2017,02,28,08,37,-2.80
2017,02,28,08,38,-2.80
2017,02,28,08,39,-2.80
2017,02,28,08,40,-2.70
2017,02,28,08,41,-2.70
2017,02,28,08,42,-2.70
2017,02,28,08,43,-2.60
2017,02,28,08,44,-2.60
2017,02,28,08,45,-2.60
2017,02,28,08,46,-2.60
2017,02,28,08,47,-2.50
2017,02,28,08,48,-2.50
2017,02,28,08,49,-2.40
2017,02,28,08,50,-2.30
2017,02,28,08,51,-2.30
2017,02,28,08,52,-2.20
2017,02,28,08,53,-2.10
2017,02,28,08,54,-2.10
2017,02,28,08,55,-2.00
2017,02,28,08,56,-1.90
2017,02,28,08,57,-1.90
2017,02,28,08,58,-1.80
2017,02,28,08,59,-1.80
2017,02,28,09,00,-1.80
2017,02,28,09,01,-1.70
2017,02,28,09,02,-1.70
2017,02,28,09,03,-1.70
2017,02,28,09,04,-1.70
2017,02,28,09,05,-1.70
2017,02,28,09,06,-1.80
2017,02,28,09,07,-1.80
2017,02,28,09,08,-1.80
2017,02,28,09,09,-1.80
2017,02,28,09,10,-1.80
2017,02,28,09,11,-1.80
2017,02,28,09,12,-1.80
2017,02,28,09,13,-1.80
2017,02,28,09,14,-1.80
2017,02,28,09,15,-1.70
2017,02,28,09,16,-1.70
2017,02,28,09,17,-1.70
2017,02,28,09,18,-1.70
2017,02,28,09,19,-1.70
2017,02,28,09,20,-1.60
2017,02,28,09,21,-1.60
2017,02,28,09,22,-1.50
2017,02,28,09,23,-1.50
2017,02,28,09,24,-1.40
2017,02,28,09,25,-1.40
2017,02,28,09,26,-1.40
2017,02,28,09,27,-1.40
2017,02,28,09,28,-1.40
2017,02,28,09,29,-1.40
2017,02,28,09,30,-1.40
2017,02,28,09,31,-1.40
2017,02,28,09,32,-1.30
2017,02,28,09,33,-1.40
2017,02,28,09,34,-1.30
2017,02,28,09,35,-1.30
2017,02,28,09,36,-1.30
2017,02,28,09,37,-1.30
2017,02,28,09,38,-1.30
2017,02,28,09,39,-1.40
2017,02,28,09,40,-1.30
2017,02,28,09,41,-1.30
2017,02,28,09,42,-1.30
2017,02,28,09,43,-1.30
2017,02,28,09,44,-1.30
2017,02,28,09,45,-1.30
2017,02,28,09,46,-1.30
2017,02,28,09,47,-1.30
2017,02,28,09,48,-1.30
2017,02,28,09,49,-1.30
2017,02,28,09,50,-1.30
2017,02,28,09,51,-1.30
2017,02,28,09,52,-1.30
2017,02,28,09,53,-1.30
2017,02,28,09,54,-1.30
2017,02,28,09,55,-1.30
2017,02,28,09,56,-1.30
2017,02,28,09,57,-1.20
2017,02,28,09,58,-1.20
2017,02,28,09,59,-1.20
2017,02,28,10,00,-1.20
2017,02,28,10,01,-1.20
2017,02,28,10,02,-1.10
2017,02,28,10,03,-1.10
2017,02,28,10,04,-1.10
2017,02,28,10,05,-1.10
2017,02,28,10,06,-1.00
2017,02,28,10,07,-1.00
2017,02,28,10,08,-0.90
2017,02,28,10,09,-0.80
2017,02,28,10,10,-0.80
2017,02,28,10,11,-0.70
2017,02,28,10,12,-0.70
2017,02,28,10,13,-0.60
2017,02,28,10,14,-0.60
2017,02,28,10,15,-0.60
2017,02,28,10,16,-0.50
2017,02,28,10,17,-0.50
2017,02,28,10,18,-0.40
2017,02,28,10,19,-0.40
2017,02,28,10,20,-0.30
2017,02,28,10,21,-0.30
2017,02,28,10,22,-0.20
2017,02,28,10,23,-0.10
2017,02,28,10,24,-0.10
2017,02,28,10,25,-0.10
2017,02,28,10,26,-0.10
2017,02,28,10,27,-0.10
2017,02,28,10,28,0.00
2017,02,28,10,29,0.00
2017,02,28,10,30,0.10
2017,02,28,10,31,0.10
2017,02,28,10,32,0.10
2017,02,28,10,33,0.10
2017,02,28,10,34,0.10
2017,02,28,10,35,0.10
2017,02,28,10,36,0.10
2017,02,28,10,37,0.10
2017,02,28,10,38,0.10
2017,02,28,10,39,0.10
2017,02,28,10,40,0.10
2017,02,28,10,41,0.10
2017,02,28,10,42,0.10
2017,02,28,10,43,0.10
2017,02,28,10,44,0.10
2017,02,28,10,45,0.10
2017,02,28,10,46,0.10
2017,02,28,10,47,0.10
2017,02,28,10,48,0.20
2017,02,28,10,49,0.30
2017,02,28,10,50,0.40
2017,02,28,10,51,0.50
2017,02,28,10,52,0.60
2017,02,28,10,53,0.70
2017,02,28,10,54,0.80
2017,02,28,10,55,0.90
2017,02,28,10,56,1.00
2017,02,28,10,57,1.00
2017,02,28,10,58,1.00
2017,02,28,10,59,1.00
2017,02,28,11,00,1.10
2017,02,28,11,01,1.20
2017,02,28,11,02,1.20
2017,02,28,11,03,1.30
2017,02,28,11,04,1.30
2017,02,28,11,05,1.40
2017,02,28,11,06,1.50
2017,02,28,11,07,1.60
2017,02,28,11,08,1.60
2017,02,28,11,09,1.60
2017,02,28,11,10,1.60
2017,02,28,11,11,1.60
2017,02,28,11,12,1.50
2017,02,28,11,13,1.50
2017,02,28,11,14,1.60
2017,02,28,11,15,1.60
2017,02,28,11,16,1.60
2017,02,28,11,17,1.60
2017,02,28,11,18,1.70
2017,02,28,11,19,1.70
2017,02,28,11,20,1.70
2017,02,28,11,21,1.70
2017,02,28,11,22,1.80
2017,02,28,11,23,1.80
2017,02,28,11,24,1.90
2017,02,28,11,25,1.90
2017,02,28,11,26,2.00
2017,02,28,11,27,2.00
2017,02,28,11,28,2.10
2017,02,28,11,29,2.20
2017,02,28,11,30,2.10
2017,02,28,11,31,2.10
2017,02,28,11,32,2.10
2017,02,28,11,33,2.10
2017,02,28,11,34,2.10
2017,02,28,11,35,2.00
2017,02,28,11,36,1.90
2017,02,28,11,37,1.90
2017,02,28,11,38,1.80
2017,02,28,11,39,1.80
2017,02,28,11,40,1.80
2017,02,28,11,41,1.90
2017,02,28,11,42,1.90
2017,02,28,11,43,1.90
2017,02,28,11,44,2.00
2017,02,28,11,45,2.10
2017,02,28,11,46,2.10
2017,02,28,11,47,2.10
2017,02,28,11,48,2.10
2017,02,28,11,49,2.20
2017,02,28,11,50,2.20
2017,02,28,11,51,2.20
2017,02,28,11,52,2.20
2017,02,28,11,53,2.10
2017,02,28,11,54,2.20
2017,02,28,11,55,2.20
2017,02,28,11,56,2.20
2017,02,28,11,57,2.30
2017,02,28,11,58,2.30
2017,02,28,11,59,2.30
2017,02,28,12,00,2.40
2017,02,28,12,01,2.40
2017,02,28,12,02,2.50
2017,02,28,12,03,2.60
2017,02,28,12,04,2.60
2017,02,28,12,05,2.70
2017,02,28,12,06,2.80
2017,02,28,12,07,2.80
2017,02,28,12,08,2.80
2017,02,28,12,09,2.90
2017,02,28,12,10,2.90
2017,02,28,12,11,2.90
2017,02,28,12,12,3.00
2017,02,28,12,13,3.10
2017,02,28,12,14,3.10
2017,02,28,12,15,3.20
2017,02,28,12,16,3.30
2017,02,28,12,17,3.30
2017,02,28,12,18,3.40
2017,02,28,12,19,3.50
2017,02,28,12,20,3.50
2017,02,28,12,21,3.60
2017,02,28,12,22,3.70
2017,02,28,12,23,3.80
2017,02,28,12,24,3.90
2017,02,28,12,25,4.10
2017,02,28,12,26,4.20
2017,02,28,12,27,4.30
2017,02,28,12,28,4.50
2017,02,28,12,29,4.60
2017,02,28,12,30,4.70
2017,02,28,12,31,4.70
2017,02,28,12,32,4.80
2017,02,28,12,33,4.80
2017,02,28,12,34,4.80
2017,02,28,12,35,4.80
2017,02,28,12,36,4.80
2017,02,28,12,37,4.90
2017,02,28,12,38,4.90
2017,02,28,12,39,4.90
2017,02,28,12,40,4.90
2017,02,28,12,41,4.90
2017,02,28,12,42,5.00
2017,02,28,12,43,5.00
2017,02,28,12,44,5.10
2017,02,28,12,45,5.20
2017,02,28,12,46,5.20
2017,02,28,12,47,5.20
2017,02,28,12,48,5.20
2017,02,28,12,49,5.30
2017,02,28,12,50,5.30
2017,02,28,12,51,5.30
2017,02,28,12,52,5.30
2017,02,28,12,53,5.30
2017,02,28,12,54,5.30
2017,02,28,12,55,5.30
2017,02,28,12,56,5.30
2017,02,28,12,57,5.30
2017,02,28,12,58,5.30
2017,02,28,12,59,5.30
2017,02,28,13,00,5.30
2017,02,28,13,01,5.30
2017,02,28,13,02,5.30
2017,02,28,13,03,5.30
2017,02,28,13,04,5.30
2017,02,28,13,05,5.30
2017,02,28,13,06,5.30
2017,02,28,13,07,5.30
2017,02,28,13,08,5.30
2017,02,28,13,09,5.30
2017,02,28,13,10,5.40
2017,02,28,13,11,5.40
2017,02,28,13,12,5.40
2017,02,28,13,13,5.50
2017,02,28,13,14,5.60
2017,02,28,13,15,5.60
2017,02,28,13,16,5.70
2017,02,28,13,17,5.70
2017,02,28,13,18,5.80
2017,02,28,13,19,5.80
2017,02,28,13,20,5.90
2017,02,28,13,21,5.90
2017,02,28,13,22,6.00
2017,02,28,13,23,6.10
2017,02,28,13,24,6.20
2017,02,28,13,25,6.30
2017,02,28,13,26,6.30
2017,02,28,13,27,6.40
2017,02,28,13,28,6.50
2017,02,28,13,29,6.60
2017,02,28,13,30,6.60
2017,02,28,13,31,6.70
2017,02,28,13,32,6.70
2017,02,28,13,33,6.70
2017,02,28,13,34,6.70
2017,02,28,13,35,6.80
2017,02,28,13,36,6.80
2017,02,28,13,37,6.80
2017,02,28,13,38,6.80
2017,02,28,13,39,6.70
2017,02,28,13,40,6.70
2017,02,28,13,41,6.70
2017,02,28,13,42,6.60
2017,02,28,13,43,6.60
2017,02,28,13,44,6.70
2017,02,28,13,45,6.60
2017,02,28,13,46,6.60
2017,02,28,13,47,6.60
2017,02,28,13,48,6.60
2017,02,28,13,49,6.70
2017,02,28,13,50,6.70
2017,02,28,13,51,6.70
2017,02,28,13,52,6.70
2017,02,28,13,53,6.80
2017,02,28,13,54,6.80
2017,02,28,13,55,6.80
2017,02,28,13,56,6.80
2017,02,28,13,57,6.80
2017,02,28,13,58,6.80
2017,02,28,13,59,6.80
2017,02,28,14,00,6.80
2017,02,28,14,01,6.80
2017,02,28,14,02,6.80
2017,02,28,14,03,6.80
2017,02,28,14,04,6.80
2017,02,28,14,05,6.80
2017,02,28,14,06,6.70
2017,02,28,14,07,6.70
2017,02,28,14,08,6.70
2017,02,28,14,09,6.70
2017,02,28,14,10,6.70
2017,02,28,14,11,6.80
2017,02,28,14,12,6.80
2017,02,28,14,13,6.80
2017,02,28,14,14,6.80
2017,02,28,14,15,6.80
2017,02,28,14,16,6.80
2017,02,28,14,17,6.80
2017,02,28,14,18,6.80
2017,02,28,14,19,6.80
2017,02,28,14,20,6.80
2017,02,28,14,21,6.80
2017,02,28,14,22,6.70
2017,02,28,14,23,6.70
2017,02,28,14,24,6.60
2017,02,28,14,25,6.60
2017,02,28,14,26,6.60
2017,02,28,14,27,6.60
2017,02,28,14,28,6.60
2017,02,28,14,29,6.50
2017,02,28,14,30,6.50
2017,02,28,14,31,6.50
2017,02,28,14,32,6.40
2017,02,28,14,33,6.40
2017,02,28,14,34,6.30
2017,02,28,14,35,6.30
2017,02,28,14,36,6.30
2017,02,28,14,37,6.20
2017,02,28,14,38,6.20
2017,02,28,14,39,6.10
2017,02,28,14,40,6.10
2017,02,28,14,41,6.00
2017,02,28,14,42,5.90
2017,02,28,14,43,5.90
2017,02,28,14,44,5.80
2017,02,28,14,45,5.80
2017,02,28,14,46,5.80
2017,02,28,14,47,5.70
2017,02,28,14,48,5.70
2017,02,28,14,49,5.70
2017,02,28,14,50,5.70
2017,02,28,14,51,5.60
2017,02,28,14,52,5.60
2017,02,28,14,53,5.60
2017,02,28,14,54,5.50
2017,02,28,14,55,5.50
2017,02,28,14,56,5.50
2017,02,28,14,57,5.40
2017,02,28,14,58,5.30
2017,02,28,14,59,5.30
2017,02,28,15,00,5.20
2017,02,28,15,01,5.20
2017,02,28,15,02,5.10
2017,02,28,15,03,5.10
2017,02,28,15,04,5.10
2017,02,28,15,05,5.10
2017,02,28,15,06,5.10
2017,02,28,15,07,5.00
2017,02,28,15,08,5.00
2017,02,28,15,09,4.90
2017,02,28,15,10,4.90
2017,02,28,15,11,4.90
2017,02,28,15,12,4.80
2017,02,28,15,13,4.80
2017,02,28,15,14,4.80
2017,02,28,15,15,4.80
2017,02,28,15,16,4.80
2017,02,28,15,17,4.80
2017,02,28,15,18,4.80
2017,02,28,15,19,4.70
2017,02,28,15,20,4.70
2017,02,28,15,21,4.70
2017,02,28,15,22,4.70
2017,02,28,15,23,4.70
2017,02,28,15,24,4.70
2017,02,28,15,25,4.80
2017,02,28,15,26,4.80
2017,02,28,15,27,4.80
2017,02,28,15,28,4.80
2017,02,28,15,29,4.70
2017,02,28,15,30,4.70
2017,02,28,15,31,4.70
2017,02,28,15,32,4.70
2017,02,28,15,33,4.70
2017,02,28,15,34,4.70
2017,02,28,15,35,4.70
2017,02,28,15,36,4.70
2017,02,28,15,37,4.70
2017,02,28,15,38,4.60
2017,02,28,15,39,4.60
2017,02,28,15,40,4.60
2017,02,28,15,41,4.60
2017,02,28,15,42,4.60
2017,02,28,15,43,4.60
2017,02,28,15,44,4.60
2017,02,28,15,45,4.60
2017,02,28,15,46,4.60
2017,02,28,15,47,4.60
2017,02,28,15,48,4.60
2017,02,28,15,49,4.50
2017,02,28,15,50,4.50
2017,02,28,15,51,4.50
2017,02,28,15,52,4.50
2017,02,28,15,53,4.50
2017,02,28,15,54,4.50
2017,02,28,15,55,4.50
2017,02,28,15,56,4.50
2017,02,28,15,57,4.50
2017,02,28,15,58,4.50
2017,02,28,15,59,4.40
2017,02,28,16,00,4.40
2017,02,28,16,01,4.40
2017,02,28,16,02,4.40
2017,02,28,16,03,4.40
2017,02,28,16,04,4.40
2017,02,28,16,05,4.40
2017,02,28,16,06,4.40
2017,02,28,16,07,4.30
2017,02,28,16,08,4.30
2017,02,28,16,09,4.30
2017,02,28,16,10,4.20
2017,02,28,16,11,4.20
2017,02,28,16,12,4.20
2017,02,28,16,13,4.10
2017,02,28,16,14,4.20
2017,02,28,16,15,4.20
2017,02,28,16,16,4.10
2017,02,28,16,17,4.10
2017,02,28,16,18,4.10
2017,02,28,16,19,4.00
2017,02,28,16,20,4.00
2017,02,28,16,21,4.00
2017,02,28,16,22,3.90
2017,02,28,16,23,3.90
2017,02,28,16,24,3.90
2017,02,28,16,25,3.90
2017,02,28,16,26,3.90
2017,02,28,16,27,3.90
2017,02,28,16,28,3.90
2017,02,28,16,29,3.90
2017,02,28,16,30,3.90
2017,02,28,16,31,3.80
2017,02,28,16,32,3.80
2017,02,28,16,33,3.80
2017,02,28,16,34,3.80
2017,02,28,16,35,3.80
2017,02,28,16,36,3.80
2017,02,28,16,37,3.80
2017,02,28,16,38,3.80
2017,02,28,16,39,3.80
2017,02,28,16,40,3.80
2017,02,28,16,41,3.70
2017,02,28,16,42,3.70
2017,02,28,16,43,3.70
2017,02,28,16,44,3.70
2017,02,28,16,45,3.70
2017,02,28,16,46,3.70
2017,02,28,16,47,3.70
2017,02,28,16,48,3.70
2017,02,28,16,49,3.70
2017,02,28,16,50,3.70
2017,02,28,16,51,3.70
2017,02,28,16,52,3.70
2017,02,28,16,53,3.60
2017,02,28,16,54,3.60
2017,02,28,16,55,3.60
2017,02,28,16,56,3.60
2017,02,28,16,57,3.60
2017,02,28,16,58,3.70
2017,02,28,16,59,3.70
2017,02,28,17,00,3.70
2017,02,28,17,01,3.60
2017,02,28,17,02,3.60
2017,02,28,17,03,3.70
2017,02,28,17,04,3.70
2017,02,28,17,05,3.70
2017,02,28,17,06,3.70
2017,02,28,17,07,3.60
2017,02,28,17,08,3.60
2017,02,28,17,09,3.60
2017,02,28,17,10,3.60
2017,02,28,17,11,3.60
2017,02,28,17,12,3.60
2017,02,28,17,13,3.60
2017,02,28,17,14,3.60
2017,02,28,17,15,3.60
2017,02,28,17,16,3.60
2017,02,28,17,17,3.60
2017,02,28,17,18,3.60
2017,02,28,17,19,3.60
2017,02,28,17,20,3.60
2017,02,28,17,21,3.60
2017,02,28,17,22,3.60
2017,02,28,17,23,3.60
2017,02,28,17,24,3.60
2017,02,28,17,25,3.60
2017,02,28,17,26,3.60
2017,02,28,17,27,3.60
2017,02,28,17,28,3.50
2017,02,28,17,29,3.50
2017,02,28,17,30,3.50
2017,02,28,17,31,3.40
2017,02,28,17,32,3.40
2017,02,28,17,33,3.40
2017,02,28,17,34,3.40
2017,02,28,17,35,3.40
2017,02,28,17,36,3.40
2017,02,28,17,37,3.40
2017,02,28,17,38,3.40